Location: Boursonne
(49.2024°N, 3.0468°E)
Time: 08:40:48
(UTC+00:00)

SL-16 R/B - Pass Details

Date: 03 March 2021
Orbit: 842 x 846 km, 71.0° (Epoch: 13 April)

Event Time Altitude Azimuth Distance (km) Brightness Sun altitude
Rises 19:31:06 0° 233° (SW) 3,394 5.9 -19.8°
Reaches altitude 10° 19:33:43 10° 241° (WSW) 2,463 5.3 -20.2°
Maximum altitude 19:38:58 39° 309° (NW) 1,259 3.6 -21.0°
Drops below altitude 10° 19:44:17 10° 18° (NNE) 2,478 4.6 -21.8°
Sets 19:46:55 0° 26° (NNE) 3,417 5.3 -22.2°
